Location: Newark
(15.4608°S, 41.1635°W)
Time: 14:42:21
(UTC+00:00)

Envisat - Pass Details

Date: 08 December 2019
Orbit: 764 x 766 km, 98.1° (Epoch: 25 January)

Event Time Altitude Azimuth Distance (km) Brightness Sun altitude
Rises 21:53:02 0° 183° (S) 3,245 6.7 -10.8°
Reaches altitude 10° 21:55:32 10° 192° (SSW) 2,314 6.1 -11.4°
Maximum altitude 22:00:04 33° 255° (WSW) 1,267 4.9 -12.3°
Drops below altitude 10° 22:04:35 10° 318° (NW) 2,296 5.6 -13.3°
Sets 22:07:04 0° 328° (NNW) 3,216 6.3 -13.8°
